Wind_Speed
6 5 4 4 5 5 4 4 2 3 1 3 2 0 3 6 10 11 13 14 13 12 11 12 14 14 14 14 14 14 13 14 14 14 14 15 16 16
6 7 5 5 5 4 3 6 6 5 4 3 2 4 4 4 7 8 7 13 14 12 13 14 13 14 15 15 15 15 15 15 15 16 16 17 17 17
9 9 7 8 7 6 6 7 6 6 7 7 6 6 5 4 6 7 8 7 11 13 13 12 13 14 15 16 16 16 17 17 17 18 18 19 19 19
10 10 9 8 9 9 8 8 7 8 7 8 7 7 8 7 8 10 9 8 10 15 14 14 14 14 15 16 16 17 18 17 18 20 21 21 22 22
12 12 10 9 9 8 10 8 7 8 9 9 9 8 9 9 10 9 11 10 11 15 16 18 18 17 17 18 19 19 19 18 20 22 23 24 25 25
14 13 12 12 11 11 10 11 10 11 10 11 10 10 11 10 11 10 11 11 11 12 15 16 19 19 19 19 20 21 22 23 23 23 24 25 26 26
16 16 15 15 16 15 14 13 13 13 12 13 13 12 13 12 12 11 12 12 13 13 13 14 15 16 18 19 21 21 21 21 23 25 26 27 27 28
19 18 17 21 20 18 17 17 20 16 15 15 16 16 14 16 14 13 13 14 14 11 13 13 12 15 16 15 19 24 20 20 22 24 26 28 28 29
22 19 18 17 18 16 17 18 19 20 21 21 22 19 20 16 16 16 14 15 15 13 18 15 15 17 16 17 20 24 26 25 26 27 29 29 29 30
23 21 20 19 19 19 16 15 16 18 20 23 26 25 21 18 18 15 15 17 15 14 16 19 15 16 16 16 21 25 25 26 25 24 25 24 24 26
26 24 24 22 20 21 18 17 19 20 22 25 25 24 24 22 21 20 20 19 17 14 14 16 15 18 16 18 19 20 22 23 17 19 23 29 31 29
24 27 28 26 24 25 21 20 18 17 18 20 18 23 23 25 25 24 24 22 17 19 13 14 17 14 15 14 11 17 16 19 25 30 27 27 29 30
25 27 27 24 28 26 24 23 21 18 18 18 18 18 16 20 20 22 21 19 19 19 24 21 21 15 14 17 17 17 20 22 25 28 24 22 22 19
21 18 21 24 23 22 22 22 21 20 17 15 16 16 19 19 20 18 17 17 20 19 20 17 18 17 17 17 12 12 18 20 18 19 18 16 17 15
26 24 24 22 22 22 20 19 16 16 13 14 14 13 16 10 13 15 15 14 14 14 11 11 10 9 8 9 13 14 18 16 15 16 16 14 14 12
26 24 21 20 20 19 18 17 14 11 11 10 10 10 11 11 10 9 6 6 6 7 4 3 1 1 1 4 7 9 12 12 14 12 10 9 8 6
21 20 20 21 20 15 16 13 12 13 14 12 13 11 10 9 8 7 7 6 7 5 3 2 1 3 4 6 4 9 11 12 12 10 7 7 7 5
21 16 18 19 19 15 15 15 13 13 12 11 11 10 9 9 7 7 6 6 6 5 4 4 3 1 3 7 8 6 9 11 11 11 9 10 9 8
21 16 16 18 16 16 15 14 14 12 15 12 12 11 10 8 8 6 6 6 6 5 4 3 3 2 3 2 2 8 5 6 9 10 12 14 8 11
20 19 16 17 17 17 15 16 15 15 17 14 13 11 10 9 8 8 8 7 8 7 5 4 4 3 2 2 1 1 5 3 3 5 6 8 9 9
22 18 16 16 17 16 15 15 15 15 15 14 13 12 11 10 10 10 10 11 10 7 7 6 7 5 4 3 3 3 7 2 1 4 1 1 1 3
20 19 17 16 17 18 18 18 17 18 17 16 14 13 12 12 12 12 12 11 11 9 9 8 8 4 4 5 7 7 4 7 7 5 4 5 6 4
20 18 20 21 19 21 20 20 18 17 17 16 15 14 13 12 13 13 13 13 12 12 11 10 9 8 7 8 8 8 9 8 6 9 9 8 9 10
Wind_Direction
241 239 236 226 244 230 245 251 209 291 26 122 164 78 212 240 240 249 248 249 250 245 244 253 257 257 262 262 261 262 264 266 268 270 273 275 279 281
238 242 242 241 245 259 226 244 247 255 271 247 262 275 274 274 261 253 259 261 247 261 257 260 264 263 262 261 262 264 266 267 269 270 272 275 278 280
224 240 237 247 239 238 253 253 236 245 258 269 274 278 279 276 258 261 269 286 246 255 259 262 268 266 266 265 264 265 266 267 268 269 272 274 276 277
233 236 245 247 253 258 252 244 250 246 245 263 263 262 268 263 260 267 263 243 239 260 258 269 274 275 270 267 266 266 266 267 268 269 273 275 277 278
232 233 237 237 246 230 251 254 260 267 269 268 266 273 267 271 273 287 274 265 262 262 269 269 271 271 271 269 268 269 270 273 276 276 276 276 276 276
236 234 237 242 244 247 250 255 256 249 261 266 267 269 272 266 269 268 276 280 273 260 277 271 274 275 273 273 274 272 274 276 278 279 279 279 279 279
237 237 242 243 237 236 235 252 248 255 257 259 263 264 264 264 267 274 268 269 272 281 269 268 279 290 291 284 278 274 277 276 276 277 278 278 277 277
234 237 242 244 246 246 249 244 244 248 252 252 258 263 265 266 270 271 271 272 276 277 264 283 276 277 276 273 275 281 285 278 275 273 273 273 274 275
243 240 242 243 256 249 254 253 254 255 256 258 257 257 257 262 262 262 266 260 263 270 291 285 286 283 281 286 283 281 284 280 277 277 276 276 278 277
244 242 240 237 236 240 241 252 256 259 261 256 258 262 260 260 259 267 266 271 276 285 281 283 289 288 287 282 281 283 290 290 283 280 277 274 275 277
250 250 245 242 241 247 253 252 259 260 266 265 260 266 266 265 265 268 274 273 275 277 276 268 284 284 287 294 290 283 279 287 279 278 275 278 281 280
255 256 254 246 243 252 256 259 258 261 268 269 266 256 257 258 258 259 265 271 268 280 274 271 278 297 296 290 269 284 296 297 293 288 288 282 283 278
252 250 251 244 245 253 258 257 255 252 250 259 260 251 243 251 259 265 269 269 270 267 277 281 281 286 275 282 281 294 290 287 287 297 300 294 293 295
247 251 248 247 252 255 255 255 251 249 244 244 244 240 245 253 261 265 269 272 275 274 279 283 283 287 289 297 305 281 293 302 307 300 301 305 306 306
245 240 238 253 255 253 249 245 240 233 224 231 227 221 240 245 243 263 267 269 268 270 275 281 282 286 289 293 308 316 322 318 321 309 297 298 303 300
238 246 246 246 247 244 245 233 226 212 211 216 219 224 221 239 230 233 216 232 226 282 276 286 315 346 353 336 330 337 336 339 340 346 334 323 322 314
236 237 239 238 242 236 226 206 206 217 215 213 212 210 205 199 207 222 217 211 204 202 210 234 72 80 74 49 9 1 6 0 358 360 6 2 347 317
233 227 231 233 234 223 216 213 211 213 205 200 193 192 193 195 203 213 204 183 191 187 196 200 279 26 1 5 26 15 5 17 28 27 40 54 14 23
221 229 230 235 228 228 223 216 215 206 203 188 189 190 192 198 199 198 191 189 192 195 191 181 184 215 256 293 300 39 41 29 43 42 56 58 47 54
222 225 232 233 233 230 221 217 208 205 199 191 190 192 192 197 196 200 197 202 201 196 198 192 182 185 212 228 239 316 43 91 47 42 71 68 69 61
216 221 224 224 227 221 219 213 209 206 194 192 192 193 197 199 205 205 198 192 208 210 215 220 225 245 246 288 294 282 295 271 198 176 176 177 291 348
219 220 217 218 224 225 216 205 205 207 202 198 197 202 205 207 215 214 211 195 210 224 225 228 248 256 264 260 262 267 270 283 295 241 233 210 228 253
216 220 216 211 216 219 211 205 204 208 206 202 202 205 212 215 219 224 224 218 215 229 235 240 245 251 251 254 261 259 260 286 276 280 291 284 277 253
Height
1575 1575 1575 1576 1576 1576 1578 1578 1577 1576 1574 1574 1576 1576 1578 1577 1575 1575 1576 1577 1578 1578 1577 1578 1578 1578 1579 1579 1579 1579 1579 1578 1578 1577 1577 1576 1576 1575
1573 1572 1573 1574 1574 1574 1575 1577 1576 1576 1575 1574 1575 1575 1575 1574 1573 1573 1573 1573 1574 1575 1575 1575 1575 1574 1575 1575 1575 1575 1575 1575 1574 1573 1573 1572 1572 1571
1570 1570 1570 1570 1571 1571 1572 1572 1573 1574 1574 1573 1573 1573 1571 1571 1572 1571 1570 1570 1571 1572 1572 1572 1571 1571 1570 1571 1571 1570 1570 1570 1569 1569 1568 1568 1567 1566
1568 1568 1568 1568 1567 1567 1568 1568 1570 1570 1572 1571 1571 1571 1569 1570 1568 1568 1567 1569 1570 1568 1568 1568 1568 1567 1566 1566 1566 1565 1565 1564 1564 1564 1563 1563 1562 1561
1564 1564 1565 1565 1564 1566 1565 1567 1568 1568 1569 1569 1569 1568 1568 1568 1567 1565 1564 1564 1564 1564 1564 1563 1563 1563 1562 1561 1561 1560 1560 1560 1559 1558 1558 1557 1556 1555
1559 1559 1561 1562 1561 1562 1563 1564 1564 1564 1565 1566 1566 1566 1566 1565 1564 1564 1564 1563 1563 1563 1561 1560 1558 1558 1557 1556 1555 1555 1554 1554 1553 1552 1551 1550 1549 1548
1554 1554 1556 1556 1556 1557 1559 1561 1562 1562 1562 1562 1562 1562 1562 1562 1562 1562 1561 1561 1560 1559 1558 1558 1557 1554 1553 1551 1550 1549 1549 1548 1547 1545 1544 1543 1541 1540
1549 1549 1550 1550 1550 1551 1552 1554 1555 1556 1557 1558 1558 1558 1558 1558 1558 1558 1558 1557 1556 1555 1554 1554 1553 1552 1551 1549 1547 1544 1543 1541 1540 1538 1536 1534 1533 1531
1545 1545 1546 1547 1546 1547 1547 1547 1548 1549 1550 1552 1552 1553 1553 1552 1552 1552 1551 1551 1551 1551 1549 1549 1549 1548 1546 1545 1541 1538 1537 1535 1532 1530 1528 1527 1525 1523
1540 1540 1540 1542 1542 1542 1542 1543 1544 1545 1544 1545 1545 1546 1546 1547 1546 1546 1546 1545 1545 1546 1547 1544 1544 1543 1542 1540 1535 1532 1529 1528 1525 1523 1521 1519 1517 1515
1532 1534 1534 1534 1535 1535 1535 1537 1538 1538 1539 1539 1539 1539 1540 1541 1541 1542 1541 1540 1539 1541 1540 1537 1538 1535 1535 1533 1531 1527 1523 1522 1519 1516 1514 1512 1509 1507
1524 1525 1527 1528 1528 1528 1530 1530 1531 1531 1532 1532 1531 1532 1533 1533 1535 1536 1535 1534 1535 1533 1531 1532 1531 1530 1528 1528 1527 1523 1521 1515 1511 1507 1506 1503 1500 1498
1516 1517 1519 1519 1521 1522 1523 1522 1523 1524 1525 1525 1525 1526 1527 1526 1528 1528 1528 1528 1527 1526 1524 1524 1523 1524 1523 1520 1518 1517 1512 1508 1506 1501 1498 1495 1493 1492
1511 1510 1512 1513 1515 1515 1515 1515 1515 1516 1516 1518 1518 1519 1520 1520 1521 1521 1521 1521 1520 1519 1518 1517 1516 1515 1514 1512 1512 1511 1506 1501 1498 1495 1492 1490 1489 1487
1504 1505 1505 1507 1508 1508 1508 1509 1509 1509 1510 1512 1513 1514 1515 1515 1515 1516 1516 1515 1514 1514 1513 1512 1511 1510 1509 1508 1506 1503 1499 1497 1493 1490 1487 1485 1484 1483
1497 1498 1499 1501 1503 1502 1502 1503 1504 1505 1506 1508 1509 1510 1510 1510 1511 1511 1512 1512 1515 1511 1510 1509 1507 1506 1506 1505 1503 1500 1497 1494 1490 1487 1485 1483 1481 1480
1492 1491 1493 1495 1497 1497 1497 1498 1500 1499 1501 1504 1505 1506 1507 1508 1508 1508 1509 1509 1511 1510 1510 1507 1505 1504 1503 1503 1503 1500 1496 1492 1489 1486 1484 1482 1480 1480
1487 1487 1488 1490 1492 1494 1492 1493 1494 1494 1497 1498 1501 1504 1505 1507 1507 1506 1506 1508 1509 1509 1509 1508 1505 1504 1503 1503 1501 1500 1497 1493 1490 1488 1484 1483 1482 1480
1482 1483 1484 1484 1488 1490 1490 1491 1492 1491 1491 1494 1497 1499 1502 1504 1503 1505 1506 1507 1507 1507 1507 1506 1507 1507 1506 1504 1502 1499 1499 1496 1493 1491 1488 1486 1487 1485
1476 1478 1479 1481 1484 1485 1486 1488 1489 1487 1487 1490 1493 1496 1499 1500 1502 1503 1504 1505 1505 1505 1504 1503 1504 1504 1504 1503 1500 1497 1495 1496 1497 1495 1493 1490 1490 1489
1469 1472 1473 1476 1479 1480 1483 1484 1486 1487 1486 1487 1490 1492 1494 1496 1498 1499 1499 1499 1503 1503 1503 1503 1501 1499 1499 1499 1499 1498 1495 1493 1493 1494 1493 1495 1493 1493
1463 1465 1467 1469 1473 1476 1477 1479 1481 1483 1482 1483 1485 1488 1490 1492 1496 1496 1496 1492 1497 1500 1500 1500 1496 1497 1498 1498 1497 1496 1496 1493 1490 1489 1490 1490 1491 1491
1456 1458 1460 1462 1467 1471 1473 1474 1476 1478 1479 1480 1481 1483 1486 1487 1491 1494 1495 1493 1494 1497 1498 1498 1497 1496 1495 1495 1494 1494 1494 1492 1492 1491 1487 1487 1487 1487